• In Belarus
  • List of Countries
  • For 7 days
  • Water Temperature
  • Weather Map
  • Weather Widgets
  • user-avatar
    Login

    Hourly Weather Hellin

    Today, 22 January, Wednesday

    Time Temperature Precipitation Wind Pressure Humidity
    00:00 +6°C° 0 mm 2 mps 708 mmHg 94%
    01:00 +5°C° 0 mm 3 mps 708 mmHg 94%
    02:00 +5°C° 0 mm 3 mps 708 mmHg 93%
    03:00 +5°C° 0 mm 4 mps 708 mmHg 93%
    04:00 +4°C° 0 mm 4 mps 708 mmHg 93%
    05:00 +4°C° 0 mm 3 mps 708 mmHg 94%
    06:00 +4°C° 0 mm 3 mps 708 mmHg 95%
    07:00 +4°C° 0 mm 3 mps 709 mmHg 93%
    08:00 +5°C° 0 mm 3 mps 709 mmHg 91%
    09:00 +5°C° 0 mm 3 mps 709 mmHg 90%
    10:00 +6°C° 0.1 mm 4 mps 709 mmHg 84%
    11:00 +7°C° 0.1 mm 4 mps 709 mmHg 79%
    12:00 +10°C° 0 mm 4 mps 709 mmHg 73%
    13:00 +10°C° 0.3 mm 3 mps 709 mmHg 70%
    14:00 +10°C° 0.3 mm 3 mps 708 mmHg 68%
    15:00 +10°C° 0.3 mm 2 mps 707 mmHg 65%
    16:00 +9°C° 0.4 mm 2 mps 708 mmHg 71%
    17:00 +8°C° 0.4 mm 2 mps 708 mmHg 77%
    18:00 +8°C° 0.4 mm 1 mps 708 mmHg 83%
    19:00 +8°C° 0 mm 1 mps 708 mmHg 84%
    20:00 +7°C° 0 mm 1 mps 708 mmHg 86%
    21:00 +6°C° 0 mm 1 mps 708 mmHg 87%
    22:00 +6°C° 0 mm 1 mps 708 mmHg 88%
    23:00 +6°C° 0 mm 1 mps 709 mmHg 88%

    Tomorrow, 23 January, Thursday

    Time Temperature Precipitation Wind Pressure Humidity
    00:00 +6°C° 0 mm 1 mps 709 mmHg 89%
    01:00 +5°C° 0 mm 1 mps 709 mmHg 89%
    02:00 +5°C° 0 mm 1 mps 709 mmHg 89%
    03:00 +5°C° 0 mm 1 mps 708 mmHg 90%
    04:00 +5°C° 0 mm 1 mps 708 mmHg 90%
    05:00 +4°C° 0 mm 1 mps 708 mmHg 90%
    06:00 +4°C° 0 mm 1 mps 708 mmHg 90%
    07:00 +5°C° 0 mm 1 mps 709 mmHg 87%
    08:00 +6°C° 0 mm 1 mps 710 mmHg 84%
    09:00 +8°C° 0 mm 1 mps 710 mmHg 80%
    10:00 +8°C° 0 mm 2 mps 710 mmHg 78%
    11:00 +9°C° 0 mm 3 mps 710 mmHg 75%
    12:00 +10°C° 0 mm 3 mps 711 mmHg 72%
    13:00 +10°C° 0 mm 4 mps 710 mmHg 71%
    14:00 +11°C° 0 mm 4 mps 710 mmHg 70%
    15:00 +10°C° 0 mm 5 mps 710 mmHg 69%
    16:00 +10°C° 0 mm 4 mps 710 mmHg 76%
    17:00 +8°C° 0 mm 4 mps 710 mmHg 82%
    18:00 +7°C° 0 mm 4 mps 710 mmHg 89%
    19:00 +7°C° 0 mm 3 mps 710 mmHg 90%
    20:00 +7°C° 0 mm 3 mps 710 mmHg 91%
    21:00 +6°C° 0 mm 2 mps 710 mmHg 93%
    22:00 +6°C° 0 mm 2 mps 710 mmHg 93%
    23:00 +5°C° 0 mm 2 mps 710 mmHg 94%

    Day after tomorrow, 24 January, Friday

    Time Temperature Precipitation Wind Pressure Humidity
    00:00 +5°C° 0 mm 2 mps 710 mmHg 94%
    01:00 +5°C° 0 mm 2 mps 710 mmHg 94%
    02:00 +5°C° 0 mm 2 mps 710 mmHg 95%
    03:00 +5°C° 0 mm 2 mps 710 mmHg 95%
    04:00 +5°C° 0 mm 2 mps 710 mmHg 95%
    05:00 +5°C° 0 mm 2 mps 710 mmHg 94%
    06:00 +5°C° 0 mm 2 mps 710 mmHg 94%
    07:00 +5°C° 0 mm 2 mps 710 mmHg 91%
    08:00 +6°C° 0 mm 2 mps 711 mmHg 89%
    09:00 +7°C° 0 mm 2 mps 711 mmHg 86%
    10:00 +8°C° 0 mm 2 mps 711 mmHg 83%
    11:00 +9°C° 0 mm 3 mps 711 mmHg 79%
    12:00 +10°C° 0 mm 3 mps 711 mmHg 76%
    13:00 +10°C° 0 mm 3 mps 711 mmHg 76%
    14:00 +10°C° 0 mm 3 mps 711 mmHg 77%
    15:00 +10°C° 0 mm 3 mps 710 mmHg 77%
    16:00 +9°C° 0 mm 3 mps 710 mmHg 82%
    17:00 +8°C° 0 mm 2 mps 710 mmHg 87%
    18:00 +8°C° 0 mm 2 mps 710 mmHg 92%
    19:00 +7°C° 0 mm 2 mps 710 mmHg 93%
    20:00 +7°C° 0 mm 1 mps 710 mmHg 95%
    21:00 +7°C° 0 mm 1 mps 710 mmHg 96%
    22:00 +7°C° 0 mm 1 mps 710 mmHg 97%
    23:00 +7°C° 0 mm 1 mps 710 mmHg 97%

    25 January, Saturday

    Time Temperature Precipitation Wind Pressure Humidity
    00:00 +7°C° 0 mm 1 mps 710 mmHg 97%
    01:00 +7°C° 0 mm 1 mps 710 mmHg 97%
    02:00 +7°C° 0 mm 1 mps 710 mmHg 97%
    03:00 +7°C° 0 mm 1 mps 709 mmHg 96%
    04:00 +7°C° 0 mm 1 mps 709 mmHg 96%
    05:00 +7°C° 0 mm 1 mps 709 mmHg 96%
    06:00 +7°C° 0 mm 1 mps 709 mmHg 95%
    07:00 +7°C° 0.1 mm 1 mps 709 mmHg 92%
    08:00 +8°C° 0.1 mm 1 mps 710 mmHg 90%
    09:00 +8°C° 0.1 mm 1 mps 710 mmHg 87%
    10:00 +9°C° 0.1 mm 1 mps 710 mmHg 82%
    11:00 +10°C° 0.1 mm 1 mps 710 mmHg 78%
    12:00 +11°C° 0.1 mm 1 mps 710 mmHg 73%
    13:00 +11°C° 0.1 mm 1 mps 710 mmHg 72%
    14:00 +11°C° 0.1 mm 1 mps 709 mmHg 71%
    15:00 +11°C° 0.1 mm 1 mps 709 mmHg 69%
    16:00 +11°C° 0 mm 1 mps 709 mmHg 73%
    17:00 +10°C° 0 mm 1 mps 709 mmHg 78%
    18:00 +9°C° 0 mm 1 mps 709 mmHg 82%
    19:00 +9°C° 0.1 mm 1 mps 709 mmHg 83%
    20:00 +9°C° 0.1 mm 1 mps 709 mmHg 85%
    21:00 +8°C° 0.1 mm 1 mps 710 mmHg 87%
    22:00 +8°C° 0 mm 1 mps 710 mmHg 87%
    23:00 +8°C° 0 mm 1 mps 710 mmHg 87%

    26 January, Sunday

    Time Temperature Precipitation Wind Pressure Humidity
    00:00 +7°C° 0 mm 1 mps 710 mmHg 87%
    01:00 +6°C° 0 mm 2 mps 710 mmHg 86%
    02:00 +6°C° 0 mm 2 mps 710 mmHg 86%
    03:00 +6°C° 0 mm 2 mps 710 mmHg 85%
    04:00 +6°C° 0 mm 2 mps 710 mmHg 86%
    05:00 +5°C° 0 mm 3 mps 710 mmHg 88%
    06:00 +4°C° 0 mm 3 mps 710 mmHg 89%
    07:00 +5°C° 0 mm 4 mps 710 mmHg 84%
    08:00 +6°C° 0 mm 5 mps 711 mmHg 79%
    09:00 +7°C° 0 mm 5 mps 712 mmHg 75%
    10:00 +8°C° 0 mm 6 mps 712 mmHg 69%
    11:00 +9°C° 0 mm 6 mps 712 mmHg 63%
    12:00 +10°C° 0 mm 6 mps 713 mmHg 57%
    13:00 +10°C° 0 mm 6 mps 713 mmHg 56%
    14:00 +11°C° 0 mm 7 mps 712 mmHg 55%
    15:00 +11°C° 0 mm 7 mps 712 mmHg 54%
    16:00 +10°C° 0 mm 6 mps 713 mmHg 60%
    17:00 +8°C° 0 mm 5 mps 713 mmHg 65%
    18:00 +7°C° 0 mm 4 mps 713 mmHg 71%
    19:00 +6°C° 0 mm 4 mps 713 mmHg 73%
    20:00 +6°C° 0 mm 4 mps 714 mmHg 75%
    21:00 +6°C° 0 mm 4 mps 714 mmHg 78%
    22:00 +5°C° 0 mm 3 mps 714 mmHg 79%
    23:00 +5°C° 0 mm 3 mps 715 mmHg 81%

    27 January, Monday

    Time Temperature Precipitation Wind Pressure Humidity
    00:00 +6°C° 0 mm 2 mps 715 mmHg 82%
    01:00 +5°C° 0 mm 2 mps 715 mmHg 83%
    02:00 +5°C° 0 mm 2 mps 714 mmHg 84%
    03:00 +5°C° 0 mm 2 mps 714 mmHg 85%
    04:00 +4°C° 0 mm 2 mps 714 mmHg 86%
    05:00 +5°C° 0 mm 1 mps 714 mmHg 87%
    06:00 +4°C° 0 mm 1 mps 714 mmHg 88%
    07:00 +5°C° 0 mm 1 mps 714 mmHg 83%
    08:00 +7°C° 0 mm 1 mps 715 mmHg 78%
    09:00 +7°C° 0 mm 0 mps 716 mmHg 73%
    10:00 +9°C° 0 mm 1 mps 715 mmHg 68%
    11:00 +10°C° 0 mm 1 mps 715 mmHg 62%
    12:00 +11°C° 0 mm 1 mps 715 mmHg 56%
    13:00 +12°C° 0 mm 1 mps 715 mmHg 55%
    14:00 +13°C° 0 mm 2 mps 714 mmHg 53%
    15:00 +13°C° 0 mm 2 mps 714 mmHg 51%
    16:00 +12°C° 0 mm 2 mps 714 mmHg 58%
    17:00 +10°C° 0 mm 1 mps 713 mmHg 66%
    18:00 +9°C° 0 mm 1 mps 713 mmHg 73%
    19:00 +8°C° 0 mm 1 mps 713 mmHg 75%
    20:00 +8°C° 0 mm 1 mps 713 mmHg 77%
    21:00 +6°C° 0 mm 0 mps 713 mmHg 79%
    22:00 +6°C° 0 mm 0 mps 713 mmHg 81%
    23:00 +6°C° 0 mm 0 mps 713 mmHg 82%
    Show more